MST,Max TemperatureF,Mean TemperatureF,Min TemperatureF,Max Dew PointF,MeanDew PointF,Min DewpointF,Max Humidity, Mean Humidity, Min Humidity, Max Sea Level PressureIn, Mean Sea Level PressureIn, Min Sea Level PressureIn, Max VisibilityMiles, Mean VisibilityMiles, Min VisibilityMiles, Max Wind SpeedMPH, Mean Wind SpeedMPH, Max Gust SpeedMPH,PrecipitationIn, CloudCover, Events, WindDirDegrees
2013-2-1,36,33,30,31,29,27,92,87,82,30.49,30.29,30.16,10,10,10,21,13,25,0.00,8,,226
2013-2-2,34,30,26,27,25,23,92,84,75,30.60,30.51,30.37,10,9,1,13,6,15,0.00,8,,29
2013-2-3,30,22,13,26,19,9,92,81,69,30.46,30.32,30.18,10,6,0,12,4,14,0.00,5,Fog,15
2013-2-4,34,29,24,28,26,22,92,84,75,30.29,30.20,30.11,10,4,0,9,3,10,0.00,8,Fog,246
2013-2-5,34,27,19,27,24,19,92,84,75,30.20,30.08,29.98,10,7,5,10,3,12,0.00,2,,349
2013-2-6,32,21,10,26,19,7,92,82,72,30.28,30.10,29.92,10,6,0,13,5,16,0.00,5,Fog,275
2013-2-7,33,21,8,22,15,5,88,74,59,30.30,30.17,30.01,10,8,1,12,5,13,0.00,0,,354
2013-2-8,35,28,21,29,21,15,82,74,66,29.99,29.85,29.74,10,9,1,21,10,24,T,5,Snow,6
2013-2-9,35,30,24,22,20,18,88,72,56,29.89,29.79,29.72,10,10,10,24,14,28,0.00,7,,326
2013-2-10,31,19,6,20,11,0,81,60,39,30.23,30.07,29.90,10,10,10,25,12,32,T,4,,7
2013-2-11,25,11,-3,12,4,-7,80,67,54,30.40,30.31,30.15,10,10,10,12,5,13,0.00,3,,337
2013-2-12,30,22,13,22,14,6,81,72,63,30.47,30.37,30.22,10,10,9,14,6,17,0.00,8,,279
2013-2-13,35,32,28,27,24,21,85,77,69,30.36,30.26,30.12,10,10,8,28,13,32,0.00,7,,213
2013-2-14,34,24,13,26,22,13,100,86,72,30.47,30.39,30.17,10,7,0,17,8,20,0.00,4,Fog,213
2013-2-15,28,19,10,22,17,8,96,86,75,30.65,30.54,30.43,10,7,0,10,4,13,0.00,3,Fog,317
2013-2-16,36,27,18,26,22,16,88,76,64,30.56,30.34,30.03,10,10,7,9,4,10,0.00,3,,352
2013-2-17,36,26,16,27,20,13,85,63,41,30.11,29.96,29.83,10,10,8,23,7,29,0.00,5,,225
2013-2-18,35,24,12,21,16,7,88,68,47,30.22,30.14,30.04,10,10,1,13,6,15,0.00,3,Fog,231
2013-2-19,34,23,12,25,16,7,85,71,56,30.01,29.85,29.72,10,10,10,14,8,16,0.00,6,,359
2013-2-20,34,29,23,28,24,18,92,82,72,29.87,29.76,29.68,10,5,1,18,10,22,T,8,Snow,215
2013-2-21,29,24,19,22,19,15,92,78,63,30.09,29.96,29.81,10,7,2,17,10,21,T,6,Snow,209
2013-2-22,33,22,11,25,18,9,92,78,63,30.18,30.05,29.88,10,6,0,24,12,29,T,7,Fog-Snow,208
2013-2-23,30,23,16,25,21,8,92,71,50,30.09,29.79,29.66,10,4,0,35,14,43,0.06,8,Fog-Snow,216
2013-2-24,27,13,-1,16,8,-3,88,69,50,30.41,30.32,30.13,10,10,8,18,7,21,0.00,0,,232
2013-2-25,30,15,0,23,15,-1,91,72,53,30.37,30.12,29.97,10,5,0,17,5,21,0.03,7,Fog-Snow,219
2013-2-26,28,17,5,20,14,7,92,78,63,30.48,30.22,30.00,10,6,0,17,8,21,0.00,4,Fog,220
2013-2-27,29,13,-4,16,4,-6,88,71,53,30.60,30.51,30.32,10,8,0,9,3,10,0.00,3,Fog,350
2013-2-28,32,17,2,25,16,3,92,73,54,30.61,30.56,30.44,10,8,3,9,4,10,T,6,Snow,1